Hourly Data Report for May 05, 2012

All times are specified in Local Standard Time (LST). Add 1 hour to adjust for Daylight Saving Time where and when it is observed.

LONDON A
ONTARIO

43°01'59.000" N
81°09'04.000" W
278.00 m
6144473
71623
YXU

Download Data

Hourly Data (May 2012)
Hourly Data Report for May 5, 2012
Temp Definition
°C
Dew Point Temp Definition
°C
Rel Hum Definition
%
Wind Dir Definition
10's deg

Wind Spd Definition
km/h
Visibility Definition
km
Stn Press Definition
kPa
Hmdx Definition


Wind Chill Definition


Weather Definition


TIME
00:00 Legend Double Dagger 15.3 13.2 87 5 13 10.0 98.34     LegendNANA
01:00 Legend Double Dagger 14.7 11.5 81 6 18 10.0 98.35     Cloudy
02:00 Legend Double Dagger 14.1 10.4 78 6 19 10.0 98.32     LegendNANA
03:00 Legend Double Dagger 13.1 8.8 75 6 21 10.0 98.32     LegendNANA
04:00 Legend Double Dagger 11.6 7.2 74 6 20 10.0 98.38     Mostly Cloudy
05:00 Legend Double Dagger 10.9 7.2 78 7 24 10.0 98.40     LegendNANA
06:00 Legend Double Dagger 10.1 6.8 80 7 19 10.0 98.46     LegendNANA
07:00 Legend Double Dagger 10.6 6.6 76 7 28 10.0 98.52     Mainly Clear
08:00 Legend Double Dagger 11.9 7.3 73 8 26 10.0 98.54     LegendNANA
09:00 Legend Double Dagger 13.4 8.1 70 6 21 10.0 98.57     LegendNANA
10:00 Legend Double Dagger 14.5 8.7 68 7 23 10.0 98.57     Mainly Clear
11:00 Legend Double Dagger 15.6 8.9 64 6 17 10.0 98.61     LegendNANA
12:00 Legend Double Dagger 16.9 9.9 63 4 19 10.0 98.57     LegendNANA
13:00 Legend Double Dagger 17.4 10.4 63 5 14 10.0 98.53     Mainly Clear
14:00 Legend Double Dagger 18.2 8.8 54 6 15 10.0 98.49     LegendNANA
15:00 Legend Double Dagger 18.6 8.4 51 8 18 10.0 98.50     LegendNANA
16:00 Legend Double Dagger 17.3 7.2 51 10 16 10.0 98.47     Mostly Cloudy
17:00 Legend Double Dagger 17.3 6.9 50 6 14 10.0 98.52     LegendNANA
18:00 Legend Double Dagger 16.6 6.8 52 9 18 10.0 98.54     LegendNANA
19:00 Legend Double Dagger 14.2 4.8 53 9 12 10.0 98.60     Mostly Cloudy
20:00 Legend Double Dagger 13.6 4.3 53 10 10 10.0 98.63     LegendNANA
21:00 Legend Double Dagger 13.0 4.5 56 9 11 10.0 98.62     LegendNANA
22:00 Legend Double Dagger 12.2 4.0 57 9 12 10.0 98.64     Mostly Cloudy
23:00 Legend Double Dagger 10.5 3.1 60 7 10 10.0 98.67     LegendNANA

Notes on Data Quality.

Legend

  • E = Estimated
  • M = Missing
  • NA = Not Available
  • ‡ = Partner data that is not subject to review by the National Climate Archives
Date modified: